Weather Roundup
Issued by NWS Chicago, IL

Home | Current Version | Previous Version | Text Only | Print | Product List | Glossary Off
Versions: 1 2 3 4 5 6 7 8 9 10 11 12 13 14 15 16 17 18 19 20 21 22 23 24 25 26 27 28 29 30 31 32 33 34 35 36 37 38 39 40 41 42 43 44 45 46 47 48 49 50

000
NZUS59 KLOT 221203
HRRLOT

CHICAGO AREA WEATHER ROUNDUP
NATIONAL WEATHER SERVICE CHICAGO/ROMEOVILLE IL
600 AM CST SUN JAN 22 2017

NOTE: "FAIR" INDICATES FEW OR NO CLOUDS BELOW 12,000 FEET WITH NO
SIGNIFICANT WEATHER AND/OR OBSTRUCTIONS TO VISIBILITY.

* THESE STATIONS ARE NOT UNDER NWS QUALITY CONTROL. THEY ALSO MAY NOT
  REPORT WEATHER SUCH AS PRECIPITATION OR FOG.

ILZ005-006-012>014-019>023-221300-
NORTHEAST ILLINOIS

CITY           SKY/WX    TMP DP  RH WIND       PRES   REMARKS
OHARE          MOCLDY    41  38  89 N5        29.59R
6HR MIN TEMP:  38; 6HR MAX TEMP:  42;

MIDWAY         CLOUDY    42  40  92 SE5       29.60R FOG
6HR MIN TEMP:  40; 6HR MAX TEMP:  43;

AURORA         FOG       31  30  96 CALM      29.59R VSB 1/4
6HR MIN TEMP:  30; 6HR MAX TEMP:  41;

LANSING*       LGT RAIN  39  39 100 NE6       29.60R VSB 1/4
JOLIET*        FOG       37  37 100 CALM      29.60R VSB<1/4
WAUKEGAN       CLOUDY    38  38 100 CALM      29.59R FOG
6HR MIN TEMP:  38; 6HR MAX TEMP:  40;

DUPAGE AIRPORT FOG       32  29  88 CALM      29.58R VSB 1/4
6HR MIN TEMP:  31; 6HR MAX TEMP:  42;

WHEELING       CLOUDY    41  38  89 N3        29.61R
6HR MIN TEMP:  37; 6HR MAX TEMP:  42;

KANKAKEE*      FOG       37  36  98 CALM      29.60R VSB 1/2
MORRIS*        FOG       32  32  99 CALM      29.59R VSB 1/4
LEWIS AIRPORT* DRZL/FOG  37  37 100 E5        29.59R VSB<1/4
NORTHERLY ISL    N/A     37  36  96 CALM        N/A
$$

WIZ051-052-058>065-066-070>072-221300-
SOUTHEAST WISCONSIN

CITY           SKY/WX    TMP DP  RH WIND       PRES   REMARKS
MILWAUKEE      CLOUDY    41  39  93 CALM      29.59R FOG
6HR MIN TEMP:  39; 6HR MAX TEMP:  44;

KENOSHA*       FOG       38  37  97 CALM      29.59R VSB 1/4
RACINE*        FOG       38  36  92 CALM      29.60R VSB 3/4
WAUKESHA       FOG       37  37 100 SW3       29.59R VSB 1
$$

INZ001>003-010>013-019-020-221300-
NORTHWEST INDIANA

CITY           SKY/WX    TMP DP  RH WIND       PRES   REMARKS
GARY*          CLOUDY    41  41 100 NE5       29.60R VSB 1/4
MICHIGAN CITY* NOT AVBL
RENSSELAER*    NOT AVBL
VALPARAISO     FOG       37  37 100 N5        29.59R VSB 1/4
$$

LMZ740>746-221300-
SOUTHERN LAKE MICHIGAN

STATION/POSITION TIME  SKY/WX   TEMP WIND        PRES    VSBY
                                AIR  DIR/SP/G
                 (UTC)          (F)  (DEG/KT/KT) (MB)    (MI)
HARRISON CRIB    1140            39   CALM  /  1   N/A
BURNHAM HARBOR   1200            37   CALM  /  2   N/A
CALUMET HARBOR   1130            38   60/  1/  3 1001.8R
BURNS HARBOR     1140            36   70/  6/  8 1003.0R
MICHIGAN CITY    1140            37   30/  8/  9   N/A
$$

ABBREVIATIONS USED IN REMARKS
   TC - TEMPERATURE IN CELSIUS
  WCI - WIND CHILL INDEX
   HX - HEAT INDEX
  VSB - VISIBILITY
$$



USA.gov is the U.S. government's official web portal to all federal, state and local government web resources and services.